Probability
1 3 6 8 12 14 17 19 22 23 22 20 17 15 12 11 12 12 13 11 9 8 8 9 9 8 7 6 5 3 1 0 0 0 0 0 0 0 0 0 0 0 0
1 3 6 8 11 13 16 19 22 23 23 22 19 18 19 18 18 18 17 14 11 10 11 12 11 11 10 8 6 4 1 0 0 0 0 0 0 0 0 0 0 0 0
2 4 5 7 11 13 15 18 21 23 24 24 24 24 26 27 27 25 22 20 18 17 18 19 18 15 13 12 10 7 3 0 0 0 0 0 0 0 0 0 0 0 0
3 4 5 6 9 12 14 17 20 22 24 25 28 29 31 32 31 29 27 25 24 24 25 27 26 20 17 17 16 12 5 1 1 0 0 0 0 0 0 0 0 0 0
4 5 5 5 8 10 13 16 18 20 21 24 27 30 33 34 33 32 31 30 27 26 28 31 30 25 20 21 19 14 8 4 2 1 0 0 0 0 0 0 0 0 0
4 5 5 5 6 8 11 15 17 19 20 21 24 28 31 33 33 33 34 31 27 24 26 29 29 25 21 21 20 15 10 6 3 1 0 0 0 0 0 0 0 0 0
4 5 5 5 6 7 9 13 15 17 19 21 24 27 29 30 32 33 32 29 25 21 22 25 25 21 18 21 21 17 11 6 2 0 0 0 0 0 0 0 0 0 0
4 4 4 4 5 6 8 11 13 14 18 21 24 28 30 30 31 30 29 27 23 19 18 21 21 18 17 20 22 18 12 5 2 0 0 0 0 0 0 0 0 0 0
4 4 4 4 4 4 6 8 10 12 15 18 21 26 29 29 29 28 26 23 20 17 17 19 19 17 17 19 21 18 10 3 1 1 0 0 0 0 0 0 0 0 0
4 5 4 3 3 3 4 5 6 9 11 13 17 22 25 25 25 24 21 19 18 16 15 14 15 17 17 18 18 14 7 2 1 1 1 0 0 0 0 0 0 0 0
5 6 5 4 3 4 3 3 3 6 7 9 13 18 20 20 19 15 13 15 16 15 12 10 11 14 16 15 13 8 4 3 3 3 2 1 0 0 0 0 0 0 0
6 6 6 4 4 4 4 3 3 6 8 10 13 16 17 17 14 8 7 12 14 12 9 7 7 10 13 13 10 6 5 5 4 4 3 1 0 0 0 0 0 0 0
6 6 6 5 4 4 4 4 5 7 11 14 14 14 15 16 13 9 8 11 12 11 9 7 7 8 11 12 11 9 8 6 4 3 2 1 0 0 0 0 0 0 0
4 6 6 6 4 4 4 4 5 7 12 15 14 12 12 14 13 11 11 11 11 10 10 9 9 9 11 12 12 11 9 7 4 3 2 1 0 0 0 0 0 0 0
2 4 6 6 4 2 2 2 3 5 8 11 11 10 9 10 9 9 10 10 9 9 10 9 9 9 10 11 11 9 8 7 5 3 2 1 0 0 0 0 0 0 0
1 2 5 6 3 1 0 0 1 3 5 6 8 7 6 6 6 7 7 6 5 6 7 7 6 7 9 9 8 6 6 6 5 4 2 1 0 0 0 0 0 0 1
0 1 4 5 3 1 0 0 1 2 3 4 4 5 4 4 5 5 5 3 2 2 4 5 6 7 7 7 6 5 5 5 5 4 2 1 0 0 0 1 1 2 2
0 1 3 4 2 0 0 0 0 1 2 2 2 3 3 3 4 4 3 2 1 1 2 3 4 5 6 5 5 6 5 4 4 3 2 1 0 0 0 1 2 3 4
0 1 2 2 1 0 0 0 0 0 1 1 0 1 2 3 3 3 2 1 1 1 1 1 2 3 4 3 3 4 4 4 3 2 1 0 0 0 0 0 1 2 3
0 1 2 1 0 0 0 0 0 0 0 0 0 0 1 3 3 3 2 1 0 1 1 0 1 2 3 2 1 2 3 3 2 1 0 0 0 0 0 0 0 1 1
1 1 1 0 0 0 0 0 0 0 0 0 0 0 1 3 3 3 2 1 0 0 1 0 0 1 2 2 1 1 2 2 2 1 0 0 0 0 0 0 0 0 0
1 1 1 0 0 0 0 0 0 0 0 0 1 1 2 3 4 2 1 1 0 0 0 0 0 1 2 3 1 1 2 2 1 0 0 0 0 0 0 0 0 0 0
1 1 0 0 0 0 0 0 0 0 0 0 1 2 3 4 4 2 0 0 0 0 0 0 0 1 2 3 2 1 2 3 1 0 0 0 0 0 0 0 0 0 0
1 0 0 0 0 0 0 0 0 0 0 0 1 2 3 4 4 1 0 0 0 0 0 0 0 1 3 4 3 1 2 2 1 0 0 0 0 0 0 0 0 0 0
0 0 0 0 0 0 0 0 0 0 0 0 0 1 1 2 3 1 0 0 0 0 0 0 0 1 2 4 3 1 1 1 1 1 0 0 0 0 0 0 0 0 0
0 0 0 0 0 0 0 0 0 0 0 0 0 0 0 1 2 2 1 0 0 0 0 0 0 0 2 3 3 2 1 0 1 1 1 0 0 0 0 0 0 0 0
Wind_Speed
9 10 10 11 8 6 5 4 2 2 3 5 7 8 9 9 8 9 10 11 11 11 12 12 13 13 13 13 12 12 12 11 11 11 11 11 11 11 11 10 8 9 12
10 10 9 10 9 7 5 4 3 2 2 3 5 6 8 9 9 9 9 10 11 11 12 12 12 13 13 13 13 12 12 11 11 11 10 10 10 11 10 9 6 9 12
10 9 8 10 9 8 7 4 3 2 1 2 3 4 6 8 9 9 9 10 10 11 12 12 13 13 13 13 13 13 12 12 12 10 9 8 9 10 10 9 9 11 12
9 8 8 11 10 8 7 6 4 3 1 0 2 2 4 6 8 8 9 9 10 10 11 12 12 13 13 13 13 13 13 12 12 10 7 7 8 10 10 10 10 11 11
9 8 9 12 11 10 8 6 4 3 2 1 1 2 3 5 6 7 8 8 8 9 10 11 13 13 13 13 13 13 13 13 11 9 6 6 6 10 10 10 10 11 11
9 9 9 12 11 10 9 7 5 4 3 2 1 1 2 3 5 5 6 6 7 8 9 10 12 13 13 14 14 14 13 13 11 8 7 6 6 10 10 10 10 11 11
9 9 9 10 11 10 9 8 7 5 4 3 2 2 3 3 3 4 5 6 7 8 9 10 11 13 13 14 14 14 14 11 9 7 7 6 7 11 11 10 10 10 10
9 8 8 9 9 10 9 8 8 6 5 4 3 3 3 4 4 4 5 6 6 8 9 10 11 12 13 14 14 14 14 11 9 8 7 7 9 11 11 10 10 10 10
8 8 7 8 8 8 8 7 7 7 6 5 4 3 3 4 5 5 5 6 7 7 8 9 11 12 12 14 15 14 13 9 9 7 7 6 10 11 11 10 10 10 10
7 8 8 8 8 8 7 6 7 7 6 5 4 4 4 4 6 6 6 5 6 7 8 9 11 12 12 13 14 14 13 10 9 8 6 7 11 12 12 11 11 10 10
7 7 7 8 8 8 8 6 6 6 4 4 3 3 3 4 4 5 5 4 6 7 8 9 10 11 11 11 12 13 12 8 9 6 6 8 12 12 12 11 11 11 11
9 8 7 8 8 7 6 5 4 4 3 4 3 3 3 3 3 4 4 5 6 8 9 9 10 11 10 8 10 12 8 10 8 6 6 10 13 13 12 12 12 12 11
8 7 7 7 7 7 5 5 4 3 3 3 4 3 3 3 2 3 2 3 4 6 6 7 8 8 8 7 8 9 9 9 6 6 7 11 13 14 13 13 13 12 11
8 7 7 6 6 6 6 5 4 4 3 3 3 4 3 2 2 3 3 3 4 3 4 5 5 8 9 9 10 11 11 8 7 6 7 12 13 14 14 14 14 13 12
8 7 7 6 6 6 5 5 5 4 4 4 3 3 3 2 3 3 3 4 4 4 5 5 6 7 8 9 9 10 11 11 10 8 7 11 12 13 14 14 14 14 13
8 8 7 6 6 6 5 5 5 5 4 4 4 4 4 3 3 4 4 4 4 4 5 6 7 7 7 7 9 10 10 11 10 10 8 10 11 12 14 15 15 14 13
8 8 7 7 6 6 6 6 5 5 5 4 4 5 5 4 4 3 4 4 4 4 5 5 7 6 6 7 9 10 9 10 10 10 10 8 10 11 12 14 15 15 14
8 8 8 6 6 6 6 6 5 5 6 4 4 4 5 6 5 4 4 4 4 4 4 5 6 6 6 7 7 7 7 7 10 10 9 9 8 9 11 12 13 15 14
8 8 7 7 7 7 7 6 7 6 6 5 5 5 5 6 6 5 4 4 5 4 4 5 6 6 6 7 6 6 7 7 8 9 10 11 9 8 8 10 11 12 13
8 8 8 8 7 8 6 6 5 6 6 5 5 5 6 6 7 6 5 6 6 5 5 5 7 6 6 6 6 6 6 7 7 9 10 9 9 9 9 9 9 9 11
8 8 9 9 8 7 5 6 6 6 6 6 6 7 8 7 7 7 5 6 6 6 7 7 6 8 7 6 5 4 4 6 8 8 8 8 10 10 9 10 8 7 7
8 8 9 10 9 8 7 7 6 7 7 7 7 8 9 9 8 7 7 7 7 7 8 8 7 6 6 7 6 6 4 5 6 8 8 9 10 9 9 10 10 9 7
9 9 8 10 10 9 9 7 7 7 7 7 8 7 9 10 10 9 9 8 9 8 8 9 10 10 8 8 8 7 6 6 5 6 9 9 10 9 9 9 10 10 9
10 10 10 10 10 10 9 8 10 9 10 10 8 8 9 10 11 10 10 10 9 9 10 10 10 9 10 9 9 8 7 4 5 5 6 9 10 11 10 9 10 10 10
11 10 10 11 11 11 10 10 11 11 10 9 9 11 11 10 11 11 11 10 10 9 11 11 10 11 10 10 9 8 8 6 7 6 7 8 8 8 9 9 9 8 10
11 10 10 12 12 11 11 11 12 13 13 13 12 11 10 9 9 12 12 11 11 10 11 11 11 13 11 12 9 9 8 7 8 8 8 10 8 7 9 8 8 8 8
Wind_Direction
350 349 358 350 0 11 27 37 71 106 135 159 168 173 174 173 171 173 174 172 170 167 165 162 158 153 151 147 144 141 138 135 133 129 126 121 118 115 113 114 120 106 102
339 346 0 355 360 8 14 29 39 65 118 152 168 174 178 178 178 178 177 176 176 175 172 168 164 160 156 152 148 146 142 139 135 130 129 127 125 122 119 112 102 103 107
346 350 359 -0 359 4 6 13 30 40 86 148 167 174 180 183 184 182 181 179 181 180 178 174 170 167 162 157 153 151 147 143 139 136 148 144 132 130 125 119 113 112 111
352 355 4 359 358 359 1 3 13 19 19 135 174 180 186 188 190 189 185 182 181 182 182 178 172 169 165 159 156 155 151 147 145 154 163 144 138 133 133 129 123 117 113
358 1 9 1 357 355 354 358 1 358 348 327 192 187 196 193 193 193 190 186 181 181 182 180 175 172 168 163 159 157 154 151 152 170 153 145 140 134 136 131 127 121 116
359 0 7 3 357 355 353 352 351 341 330 318 280 217 207 202 203 196 190 184 183 183 182 179 177 174 170 167 163 160 158 157 165 167 158 157 148 140 142 135 130 126 121
355 358 357 359 355 352 351 350 347 340 327 316 301 258 230 221 218 211 195 188 185 185 185 182 178 177 174 170 167 165 162 165 177 167 164 161 145 143 145 141 138 133 128
348 351 353 353 349 348 345 342 343 337 332 322 303 275 248 237 226 213 203 194 191 193 189 189 181 176 176 174 171 168 165 173 178 173 170 164 146 153 152 147 143 138 133
346 348 350 347 344 338 338 333 333 332 325 318 302 288 271 249 228 215 206 201 199 199 198 193 189 180 179 180 175 170 168 178 185 176 175 167 155 164 159 155 150 145 142
340 344 345 345 344 336 327 328 325 319 315 306 297 290 279 249 227 214 208 203 205 204 203 198 193 189 184 183 178 171 167 180 189 181 181 163 162 170 165 161 157 151 146
333 338 342 342 338 335 325 326 315 303 297 289 278 283 264 243 234 220 215 211 212 209 208 204 198 190 186 183 178 169 171 187 185 188 184 160 172 176 170 166 162 156 152
326 332 338 339 336 332 327 320 311 300 291 283 281 277 265 257 246 241 217 212 211 211 210 205 200 191 192 187 177 175 187 189 186 188 176 167 181 181 175 171 168 164 159
316 322 331 333 330 328 324 318 316 305 294 282 281 281 276 266 250 233 216 199 201 206 207 198 200 201 202 193 187 191 191 189 187 186 176 177 188 186 180 176 173 168 165
308 314 322 326 327 325 320 320 310 305 295 290 282 285 279 270 253 235 224 216 210 211 211 209 213 210 206 200 197 196 193 191 190 187 174 179 193 191 186 182 177 174 173
305 305 316 320 325 323 316 315 310 307 294 285 276 270 270 264 254 240 232 220 220 216 215 214 215 213 209 203 201 200 198 197 194 190 174 179 194 196 193 188 183 181 180
308 306 316 314 316 316 311 311 306 300 285 277 273 269 264 255 249 247 238 229 224 222 220 221 221 214 211 206 203 203 201 200 200 194 186 180 190 199 198 193 189 187 187
305 308 309 305 307 312 310 305 304 297 284 277 273 263 260 253 245 243 246 237 226 225 225 222 222 217 209 208 206 204 202 202 201 198 192 190 189 195 200 199 196 192 190
299 302 305 299 302 310 308 300 296 299 291 279 273 266 261 253 246 241 239 243 229 222 223 221 220 217 210 207 206 203 201 199 202 201 196 196 194 192 193 196 196 194 193
298 298 304 303 305 305 301 294 290 293 285 276 269 263 259 256 248 245 237 242 230 221 220 224 219 216 212 208 207 205 202 201 199 200 200 199 197 193 190 183 190 194 195
298 298 302 303 299 299 296 292 291 290 283 274 268 262 258 254 249 244 239 239 234 224 218 221 222 215 215 208 206 209 206 206 203 202 200 197 197 195 193 188 188 189 193
302 301 302 301 300 301 294 291 290 287 282 276 269 260 256 252 248 245 241 232 231 228 221 218 220 214 211 200 202 204 211 211 213 206 200 197 198 196 195 194 194 192 190
304 301 298 298 298 296 287 287 280 279 278 273 267 260 256 250 244 242 241 234 228 230 225 219 215 218 214 201 201 192 197 205 213 211 204 202 199 195 197 197 196 195 193
313 310 302 299 295 293 289 284 278 273 271 267 263 258 253 251 245 242 238 237 232 228 224 219 213 214 212 212 210 204 197 203 181 200 207 204 199 197 197 196 199 198 195
312 309 304 302 295 292 288 278 275 271 273 269 267 260 254 250 248 242 238 233 232 232 226 220 218 216 211 211 214 224 228 205 188 182 198 204 202 203 200 194 198 199 196
311 307 306 305 297 293 288 280 272 268 273 272 267 260 254 248 245 240 236 233 230 233 231 224 219 218 214 214 214 214 218 217 212 196 193 193 199 204 203 199 197 197 197
311 309 308 306 302 298 291 283 275 272 275 271 264 261 256 249 243 238 237 234 231 231 232 227 220 218 219 220 219 217 213 207 204 203 198 193 196 197 198 199 199 197 196